TimeEST,TemperatureF,Dew PointF,Humidity,Sea Level PressureIn,VisibilityMPH,Wind Direction,Wind SpeedMPH,Gust SpeedMPH,PrecipitationIn,Events,Conditions,WindDirDegrees,DateUTC
12:53 AM,19.0,7.0,59,30.16,10.0,NNW,8.1,-,N/A,,Clear,330,2013-12-31 05:53:00
1:53 AM,18.0,7.0,62,30.17,10.0,NNW,6.9,-,N/A,,Clear,340,2013-12-31 06:53:00
2:53 AM,17.1,7.0,65,30.17,10.0,NNW,4.6,-,N/A,,Partly Cloudy,330,2013-12-31 07:53:00
3:53 AM,17.1,7.0,65,30.15,10.0,North,4.6,-,N/A,,Overcast,350,2013-12-31 08:53:00
4:33 AM,17.1,7.0,65,30.14,10.0,NNW,9.2,-,N/A,,Partly Cloudy,330,2013-12-31 09:33:00
4:53 AM,17.1,6.1,62,30.16,10.0,NW,5.8,-,N/A,,Clear,320,2013-12-31 09:53:00
5:53 AM,16.0,6.1,65,30.15,10.0,NNW,4.6,-,N/A,,Clear,340,2013-12-31 10:53:00
6:53 AM,16.0,7.0,68,30.16,10.0,NNW,5.8,-,N/A,,Clear,340,2013-12-31 11:53:00
7:53 AM,16.0,7.0,68,30.16,10.0,NNW,4.6,-,N/A,,Clear,340,2013-12-31 12:53:00
8:53 AM,19.0,9.0,65,30.15,10.0,NNW,5.8,-,N/A,,Scattered Clouds,330,2013-12-31 13:53:00
9:53 AM,19.9,8.1,60,30.16,10.0,Calm,Calm,-,N/A,,Partly Cloudy,0,2013-12-31 14:53:00
10:53 AM,21.9,8.1,55,30.12,10.0,WSW,6.9,-,N/A,,Clear,250,2013-12-31 15:53:00
11:53 AM,23.0,8.1,53,30.10,10.0,SW,9.2,-,N/A,,Clear,220,2013-12-31 16:53:00
12:53 PM,25.0,8.1,49,30.08,10.0,SSW,9.2,-,N/A,,Clear,210,2013-12-31 17:53:00
1:53 PM,26.1,10.0,51,30.07,10.0,WSW,9.2,-,N/A,,Clear,240,2013-12-31 18:53:00
2:53 PM,26.1,14.0,60,30.08,10.0,WSW,12.7,18.4,N/A,,Mostly Cloudy,240,2013-12-31 19:53:00
3:53 PM,26.1,12.9,58,30.09,10.0,Variable,5.8,-,N/A,,Mostly Cloudy,0,2013-12-31 20:53:00
4:53 PM,26.1,15.1,63,30.12,10.0,Variable,3.5,-,N/A,,Mostly Cloudy,0,2013-12-31 21:53:00
5:53 PM,25.0,15.1,66,30.12,10.0,Calm,Calm,-,N/A,,Clear,0,2013-12-31 22:53:00
6:53 PM,21.9,15.1,75,30.13,10.0,Calm,Calm,-,N/A,,Clear,0,2013-12-31 23:53:00
7:53 PM,27.0,17.1,66,30.16,10.0,WSW,8.1,-,N/A,,Clear,250,2014-01-01 00:53:00
8:53 PM,28.0,17.1,63,30.17,10.0,West,6.9,-,N/A,,Clear,270,2014-01-01 01:53:00
9:53 PM,27.0,17.1,66,30.19,10.0,Variable,4.6,-,N/A,,Clear,0,2014-01-01 02:53:00
10:53 PM,25.0,16.0,69,30.21,10.0,Variable,5.8,-,N/A,,Clear,0,2014-01-01 03:53:00
11:53 PM,25.0,14.0,63,30.23,10.0,WNW,5.8,-,N/A,,Clear,290,2014-01-01 04:53:00